SCP
0 0 0 0 0 0 0 0 0 0 0 0 0 0 0 0 0 0 0 0 0 0 0 0 0 0 0 0 0 0 0 0 0 0 0 0 0 0 0 0 0 0 0
0 0 0 0 0 0 0 0 0 0 0 0 0 0 0 0 0 0 0 0 0 0 0 0 0 0 0 0 0 0 0 0 0 0 0 0 0 0 0 0 0 0 0
0 0 0 0 0 0 0 0 0 0 0 0 0 0 0 0 0 0 0 0 0 0 0 0 0 0 0 0 0 0 0 0 0 0 0 0 0 0 0 0 0 0 0
0 0 0 0 0 0 0 0 0 0 0 0 0 0 0 0 0 0 0 0 0 0 0 0 0 0 0 0 0 0 0 0 0 0 0 0 0 0 0 0 0 0 0
0 0 0 0 0 0 0 0 0 0 0 0 0 0 0 0 0 0 0 0 0 0 0 0 0 0 0 0 0 0 0 0 0 0 0 0 0 0 0 0 0 0 0
0 0 0 0 0 0 0 0 0 0 0 0 0 0 0 0 0 0 0 0 0 0 0 0 0 0 0 0 0 0 0 0 0 0 0 0 0 0 0 0 0 0 0
0 0 0 0 0 0 0 0 0 0 0 0 0 0 0 0 0 0 0 0 0 0 0 0 0 0 0 0 0 0 0 0 0 0 0 0 0 0 0 0 0 0 0
0 0 0 0 0 0 0 0 0 0 0 0 0 0 0 0 0 0 0 0 0 0 0 0 0 0 0 0 0 0 0 0 0 0 0 0 0 0 0 0 0 0 0
0 0 0 0 0 0 0 0 0 0 0 0 0 0 0 0 0 0 0 0 0 0 0 0 0 0 0 0 0 0 0 0 0 0 0 0 0 0 0 0 0 0 0
0 0 0 0 0 0 0 0 0 0 0 0 0 0 0 0 0 0 0 0 0 0 0 0 0 0 0 0 0 0 0 0 0 0 0 0 0 0 0 0 0 0 0
0 0 0 0 0 0 0 0 0 0 0 0 0 0 0 0 0 0 0 0 0 0 0 0 0 0 0 0 0 0 0 0 0 0 0 0 0 0 0 0 0 0 0
0 0 0 0 0 0 0 0 0 0 0 0 0 0 0 0 0 0 0 0 0 0 0 0 0 0 0 0 0 0 0 0 0 0 0 0 0 0 0 0 0 0 0
0 0 0 0 0 0 0 0 0 0 0 0 0 0 0 0 0 0 0 0 0 0 0 0 0 0 0 0 0 0 0 0 0 0 0 0 0 0 0 0 0 0 0
0 0 0 0 0 0 0 0 0 0 0 0 0 0 0 0 0 0 0 0 0 0 0 0 0 0 0 0 0 0 0 0 0 0 0 0 0 0 0 0 0 0 0
0 0 0 0 0 0 0 0 0 0 0 0 0 0 0 0 0 0 0 0 0 0 0 0 0 0 0 0 0 0 0 0 0 0 0 0 0 0 0 0 0 0 0
0 0 0 0 0 0 0 0 0 0 0 0 0 0 0 0 0 0 0 0 0 0 0 0 0 0 0 0 0 0 0 0 0 0 0 0 0 0 0 0 0 0 0
0 0 0 0 0 0 0 0 0 0 0 0 0 0 0 0 0 0 0 0 0 0 0 0 0 0 0 0 0 0 0 0 0 0 0 0 0 0 0 0 0 0 0
0 0 0 0 0 0 0 0 0 0 0 0 0 0 0 0 0 0 0 0 0 0 0 0 0 0 0 0 0 0 0 0 0 0 0 0 0 0 0 0 0 0 0
0 0 0 0 0 0 0 0 0 0 0 0 0 0 0 0 0 0 0 0 0 0 0 0 0 0 0 0 0 0 0 0 0 0 0 0 0 0 0 0 0 0 0
0 0 0 0 0 0 0 0 0 0 0 0 0 0 0 0 0 0 0 0 0 0 0 0 0 0 0 0 0 0 0 0 0 0 0 0 0 0 0 0 0 0 0
0 0 0 0 0 0 0 0 0 0 0 0 0 0 0 0 0 0 0 0 0 0 0 0 0 0 0 0 0 0 0 0 0 0 0 0 0 0 0 0 0 0 0
0 0 0 0 0 0 0 0 0 0 0 0 0 0 0 0 0 0 0 0 0 0 0 0 0 0 0 0 0 0 0 0 0 0 0 0 0 0 0 0 0 0 0
0 0 0 0 0 0 0 0 0 0 0 0 0 0 0 0 0 0 0 0 0 0 0 0 0 0 0 0 0 0 0 0 0 0 0 0 0 0 0 0 0 0 0
0 0 0 0 0 0 0 0 0 0 0 0 0 0 0 0 0 0 0 0 0 0 0 0 0 0 0 0 0 0 0 0 0 0 0 0 0 0 0 0 0 0 0
0 0 0 0 0 0 0 0 0 0 0 0 0 0 0 0 0 0 0 0 0 0 0 0 0 0 0 0 0 0 0 0 0 0 0 0 0 0 0 0 0 0 0
0 0 0 0 0 0 0 0 0 0 0 0 0 0 0 0 0 0 0 0 0 0 0 0 0 0 0 0 0 0 0 0 0 0 0 0 0 0 0 0 0 0 0
Wind_Speed
4 5 7 9 9 9 8 8 8 8 8 8 7 7 8 8 8 9 9 9 9 10 10 11 12 12 13 14 14 15 15 15 16 16 15 14 15 15 16 15 13 11 16
4 5 7 8 9 9 9 8 8 8 8 7 7 7 7 7 8 8 9 9 9 9 10 11 11 12 13 13 14 14 13 13 13 13 12 11 13 15 16 15 14 11 16
4 5 5 8 9 9 9 8 8 7 8 8 7 7 7 7 8 8 8 8 9 9 9 10 11 12 12 13 13 12 12 10 10 9 9 6 9 15 15 15 14 15 15
5 5 5 8 9 9 9 9 8 6 7 7 7 7 7 7 7 8 8 8 9 9 10 10 11 12 12 12 12 11 9 7 6 7 5 6 7 13 14 14 14 15 15
6 6 5 8 8 8 8 8 8 7 6 7 7 7 7 6 7 7 8 8 9 9 9 10 11 11 11 11 10 10 7 6 6 6 6 7 6 12 13 13 14 14 14
6 6 6 8 8 8 7 7 8 7 6 7 7 7 6 6 7 7 7 8 8 9 9 10 10 10 10 10 9 8 6 5 5 4 6 6 6 11 13 13 13 13 14
5 5 6 8 8 8 7 7 7 8 6 6 6 6 6 6 6 7 7 7 8 8 9 9 9 9 9 9 8 6 5 5 4 5 6 6 7 12 12 12 12 12 13
4 4 5 8 8 8 7 7 6 7 7 6 6 6 5 6 6 6 7 7 7 8 9 9 8 8 8 8 7 6 5 5 5 6 6 6 9 11 11 11 11 12 12
4 4 4 4 5 7 8 8 7 6 6 5 5 5 5 6 6 6 6 6 6 7 8 8 8 7 7 7 6 5 5 5 4 4 7 5 9 10 11 10 10 11 11
4 4 4 4 4 4 4 6 7 6 6 5 4 4 4 5 5 5 5 5 6 6 7 7 8 7 7 6 5 5 4 4 3 4 4 5 9 10 10 10 10 10 10
4 3 3 3 3 3 3 4 5 5 5 4 2 2 2 1 2 3 4 5 5 6 6 7 7 6 6 4 4 4 2 2 3 3 4 7 9 10 9 9 9 9 9
3 3 3 3 3 3 3 3 2 2 2 3 2 1 1 1 1 2 3 4 3 5 5 5 5 4 3 2 2 2 1 2 3 3 4 9 9 9 9 9 8 8 8
2 3 3 2 2 2 2 2 2 2 2 2 3 2 1 1 1 2 1 1 2 4 3 3 3 1 1 1 1 1 1 2 2 3 4 8 8 9 9 8 8 8 8
3 3 3 2 2 2 2 1 2 2 2 2 3 2 1 1 1 1 1 1 1 1 2 2 1 1 1 1 1 2 2 2 2 3 4 7 7 8 8 8 7 7 7
2 3 3 3 2 2 2 1 2 2 2 2 2 2 2 1 1 1 1 1 1 1 2 1 1 1 1 1 1 2 2 3 3 3 3 6 6 6 7 7 7 7 7
2 2 3 3 2 2 2 1 1 1 2 2 2 3 2 1 1 0 1 1 1 1 1 1 1 1 1 1 2 2 3 3 3 4 3 4 7 7 7 7 7 6 7
1 2 2 2 2 2 1 1 1 1 1 2 1 2 2 1 1 1 1 1 1 1 1 1 1 1 1 2 2 2 2 2 3 3 3 3 3 5 6 6 6 6 6
1 1 2 2 2 2 1 1 1 1 1 1 1 2 3 1 1 1 1 1 1 1 1 2 2 2 2 2 2 2 2 2 3 3 3 3 3 3 4 5 6 5 5
0 0 1 1 1 1 1 0 1 1 1 1 1 1 2 1 1 1 1 1 1 2 1 2 2 2 2 2 2 2 1 2 2 3 3 3 3 3 3 4 5 5 5
0 0 0 1 1 0 1 0 0 1 1 1 1 1 2 1 0 1 1 1 1 2 1 2 2 2 2 2 2 2 1 2 2 2 2 3 3 4 3 3 2 3 5
1 0 0 0 1 0 0 0 0 0 0 0 0 0 1 2 0 1 1 1 1 1 2 2 2 3 2 2 3 2 2 2 3 2 2 2 3 3 3 3 2 2 2
1 1 1 1 1 1 0 1 1 1 1 1 1 0 1 2 1 1 2 2 1 1 2 3 2 2 2 2 3 3 1 1 1 2 2 2 2 2 3 2 2 2 2
1 1 1 1 1 1 1 0 1 0 0 0 0 1 1 1 1 2 3 3 2 2 2 2 3 3 3 2 2 2 3 2 1 1 1 1 1 2 2 2 2 2 3
2 1 1 1 1 1 1 1 2 2 2 1 1 1 1 1 2 1 2 3 3 2 2 2 2 2 3 3 2 1 1 3 2 1 1 1 1 2 1 1 1 2 2
1 1 1 2 2 2 2 2 2 2 2 1 1 2 1 1 2 2 2 3 3 2 2 2 2 2 1 2 2 1 1 1 1 2 2 1 1 1 1 1 2 2 2
1 1 2 2 2 2 2 2 2 3 3 2 2 2 2 1 2 2 2 3 3 2 2 2 3 3 1 1 1 2 2 2 2 2 2 2 2 1 1 1 1 1 2
Wind_Direction
47 47 32 32 36 37 38 40 46 48 49 55 64 77 81 81 80 79 81 83 85 88 87 87 87 83 81 80 81 80 80 79 79 77 73 71 73 74 73 72 73 72 77
58 57 40 39 40 39 37 39 47 49 48 49 58 69 80 83 83 80 82 84 86 90 92 90 88 86 85 84 83 82 83 84 85 82 76 70 72 74 74 72 74 77 77
55 65 52 40 40 40 37 37 42 48 49 47 53 62 76 85 84 80 80 84 89 90 92 91 89 88 88 87 86 86 86 85 84 83 81 79 76 77 77 76 77 79 78
46 61 57 42 39 38 37 34 36 44 47 47 49 54 67 82 88 83 81 82 88 89 88 91 90 88 88 89 89 89 87 79 71 72 76 77 77 81 80 78 79 79 80
46 48 53 46 40 38 36 32 30 38 48 48 47 49 54 72 86 86 82 83 83 85 89 88 91 91 91 91 91 89 80 62 56 60 77 76 74 83 83 80 80 80 80
48 47 45 37 35 37 37 30 28 33 47 51 49 50 53 62 80 84 82 81 82 83 89 90 92 95 95 94 93 87 68 47 47 66 78 79 79 86 85 84 82 83 83
52 49 45 31 31 32 32 31 29 32 41 49 48 50 56 61 67 77 79 80 83 86 88 90 94 98 100 98 93 82 57 45 55 67 74 74 79 87 88 87 87 85 85
54 51 54 34 27 27 29 29 25 31 37 51 50 49 55 65 60 72 76 79 84 88 88 88 91 100 104 102 94 79 56 51 66 75 78 76 83 86 88 89 89 89 88
56 50 51 43 37 30 28 26 26 29 33 44 51 51 54 58 60 63 75 79 86 90 88 89 88 96 102 101 92 78 59 48 58 74 85 81 86 89 90 91 91 92 90
61 55 45 42 39 36 31 27 25 24 26 32 44 51 54 58 61 55 66 75 86 92 92 92 90 90 97 96 90 79 63 50 65 73 81 89 90 92 92 92 94 95 94
54 56 42 35 36 30 22 27 26 25 21 14 27 49 71 87 84 74 62 56 79 93 96 96 94 91 90 95 96 85 65 62 74 78 85 96 97 96 94 92 94 96 96
32 42 49 35 29 25 17 20 15 20 17 4 18 43 83 94 88 80 74 60 66 92 95 95 94 99 102 117 113 105 90 82 80 84 96 103 104 101 96 93 95 97 96
27 28 37 41 36 29 21 13 12 7 7 10 14 29 40 56 80 85 87 73 100 109 102 93 89 98 108 110 123 124 98 85 86 85 97 105 108 108 103 98 96 98 100
32 21 25 29 39 35 27 18 18 11 8 13 8 8 36 43 45 74 100 98 90 107 106 110 96 55 60 86 109 96 88 83 83 87 95 103 108 113 109 103 99 101 105
35 22 17 21 21 30 32 21 25 18 11 10 12 359 25 42 45 47 98 105 88 89 119 120 89 90 77 59 63 88 87 90 93 88 90 90 97 107 110 106 101 99 104
39 28 22 16 17 25 38 26 23 22 16 15 15 2 8 32 35 50 89 98 96 95 126 125 94 95 106 86 72 76 82 90 99 101 103 89 86 95 106 109 105 102 101
43 29 23 14 13 22 31 23 28 31 29 20 352 3 350 37 33 26 92 98 100 105 114 112 92 70 81 83 79 72 78 87 95 105 109 107 98 86 94 101 102 100 101
67 41 20 2 12 22 23 26 33 44 40 25 358 1 341 29 49 34 81 104 106 120 139 133 125 102 98 88 85 74 72 81 88 94 103 106 108 105 90 85 87 91 98
56 66 29 5 8 19 14 54 78 63 53 47 8 348 338 354 77 73 83 97 105 124 133 142 128 119 120 103 102 90 82 86 87 86 96 99 99 102 103 91 81 76 82
230 186 111 15 12 10 1 77 106 81 66 72 33 337 332 334 79 111 94 95 101 120 118 139 137 118 132 132 112 86 86 93 89 87 94 94 95 96 95 97 94 80 77
179 189 190 328 335 317 318 275 195 156 117 107 115 304 329 332 325 131 117 117 122 130 141 137 132 128 125 130 111 96 69 84 96 96 103 99 95 97 95 90 90 95 91
208 234 243 251 266 266 284 273 216 191 188 193 218 244 274 310 272 163 142 139 133 138 130 125 132 147 154 144 136 137 124 92 67 92 93 105 110 107 104 99 96 100 97
227 233 252 258 267 271 275 278 251 206 198 198 213 250 255 297 241 180 159 148 150 150 152 148 146 155 166 168 153 147 150 177 153 123 125 117 125 122 120 125 119 118 109
234 231 261 267 268 253 239 229 220 214 213 220 208 224 236 291 229 184 167 157 156 162 161 163 145 165 166 171 182 195 159 140 145 149 192 167 161 157 157 141 133 122 114
233 215 245 258 251 244 233 236 230 221 213 206 191 207 224 269 228 192 173 162 161 168 166 155 149 157 170 176 167 155 134 136 136 157 183 192 201 206 190 175 149 135 125
290 250 235 241 244 237 228 226 227 217 210 205 208 203 212 239 207 188 173 169 168 170 171 170 166 173 181 191 161 149 150 162 170 163 180 186 198 230 210 184 160 146 136